Weather History for YSCB - May, 2013

Change the Weather History Date:

Saturday, May 4, 2013

  Actual Average Record
Temperature  
Mean Temperature 58 °F -  
Max Temperature 73 °F 59 °F - ()
Min Temperature 42 °F 37 °F - ()
Degree Days  
Heating Degree Days 6    
Growing Degree Days 8 (Base 50)    
Moisture  
Dew Point 29 °F    
Average Humidity 33    
Maximum Humidity 58    
Minimum Humidity 5    
Precipitation  
Precipitation 0.00 in 0.06 in - ()
Sea Level Pressure  
Sea Level Pressure 30.09 in    
Wind  
Wind Speed 10 mph ()    
Max Wind Speed 18 mph    
Max Gust Speed 30 mph    
Visibility 6.6 miles    
Events      
T = Trace of Precipitation, MM = Missing Value Source: Averaged Metar Reports

Daily Weather History Graph

Daily Weather History Graph

Search for Another Location

Airport or City:

Trip Planner

Search our weather history database for the weather conditions in past years. The results will help you decide how hot, cold, wet, or windy it might be!

Date:

Astronomy

May. 04, 2013 Rise Set
Actual Time 6:42 AM AEST 5:17 PM AEST
Civil Twilight 6:15 AM AEST 5:43 PM AEST
Nautical Twilight 5:45 AM AEST 6:14 PM AEST
Astronomical Twilight 5:15 AM AEST 6:43 PM AEST
Moon 12:49 AM AEST (5/4) 1:48 PM AEST (5/4)
Length of Visible Light 11h 28m
Length of Day
10h 35m
Waning Crescent, 33% of the Moon is Illuminated
May 4
Waning Crescent
May 10
New
May 18
First Quarter
May 25
Full
Jun 1
Last Quarter

Hourly Weather History & Observations

Time (AEST) Temp. Windchill Dew Point Humidity Pressure Visibility Wind Dir Wind Speed Gust Speed Precip Events Conditions
12:00 AM 49 °F - 35 °F 48% 30.11 in - WNW 6.9 mph - -  
12:00 AM 50.0 °F - 35.6 °F 58% 30.09 in 6.2 mi WNW 6.9 mph - N/A   Unknown
12:30 AM 50.0 °F - 35.6 °F 58% 30.06 in 6.2 mi NNW 5.8 mph - N/A   Unknown
1:00 AM 52 °F - 34 °F 38% 30.08 in - NW 9.2 mph - -  
1:00 AM 51.8 °F - 33.8 °F 50% 30.06 in 6.2 mi NW 9.2 mph - N/A   Unknown
1:30 AM 53.6 °F - 33.8 °F 47% 30.06 in 6.2 mi NNW 10.4 mph - N/A   Unknown
2:00 AM 53.6 °F - 33.8 °F 47% 30.06 in 6.2 mi WNW 10.4 mph - N/A   Unknown
2:30 AM 50.0 °F - 33.8 °F 54% 30.06 in 6.2 mi WNW 5.8 mph - N/A   Unknown
3:00 AM 54 °F - 33 °F 32% 30.06 in - NW 13.8 mph - -  
3:00 AM 53.6 °F - 32.0 °F 44% 30.04 in 6.2 mi NW 13.8 mph - N/A   Unknown
3:30 AM 53.6 °F - 32.0 °F 44% 30.04 in 6.2 mi WNW 15.0 mph - N/A   Unknown
4:00 AM 58 °F - 27 °F 19% 30.06 in - WNW 16.1 mph - -  
4:00 AM 57.2 °F - 26.6 °F 31% 30.04 in 6.2 mi WNW 16.1 mph - N/A   Unknown
4:30 AM 55.4 °F - 28.4 °F 36% 30.04 in 6.2 mi NW 12.7 mph - N/A   Unknown
5:00 AM 55.4 °F - 28.4 °F 36% 30.04 in 6.2 mi North 15.0 mph - N/A   Unknown
5:37 AM 57.2 °F - 26.6 °F 31% 30.04 in 6.2 mi WNW 18.4 mph 29.9 mph N/A   Unknown
6:00 AM 57 °F - 29 °F 23% 30.04 in 19 mi WNW 18.4 mph - -   Partly Cloudy
6:00 AM 57.2 °F - 30.2 °F 36% 30.01 in - WNW 18.4 mph - N/A   Clear
6:30 AM 57.2 °F - 35.6 °F 44% 30.01 in 6.2 mi NW 13.8 mph - N/A   Scattered Clouds
7:00 AM 57 °F - 38 °F 37% 30.06 in - NW 10.4 mph - -  
7:00 AM 57.2 °F - 37.4 °F 48% 30.04 in 6.2 mi NW 10.4 mph - N/A   Scattered Clouds
7:30 AM 55.4 °F - 37.4 °F 51% 30.06 in 6.2 mi North 9.2 mph - N/A   Scattered Clouds
8:00 AM 57.2 °F - 39.2 °F 51% 30.06 in 6.2 mi NNE 8.1 mph - N/A   Scattered Clouds
8:30 AM 62.6 °F - 41.0 °F 45% 30.06 in 6.2 mi North 8.1 mph - N/A   Partly Cloudy
9:00 AM 64.4 °F - 39.2 °F 40% 30.06 in 6.2 mi NNW 8.1 mph - N/A   Partly Cloudy
9:30 AM 64.4 °F - 39.2 °F 40% 30.06 in 6.2 mi NW 6.9 mph - N/A   Partly Cloudy
10:00 AM 67 °F - 37 °F 22% 30.08 in - NW 11.5 mph - -  
10:00 AM 66.2 °F - 37.4 °F 35% 30.06 in 6.2 mi NW 11.5 mph - N/A   Partly Cloudy
10:30 AM 69.8 °F - 32.0 °F 25% 30.06 in - WNW 13.8 mph - N/A   Clear
11:00 AM 69.8 °F - 24.8 °F 18% 30.06 in - WNW 12.7 mph - N/A   Clear
11:30 AM 71.6 °F - 21.2 °F 15% 30.06 in - West 13.8 mph - N/A   Clear
12:00 PM 71 °F - 15 °F 5% 30.07 in - West 15.0 mph - -  
12:00 PM 71.6 °F - 15.8 °F 12% 30.04 in - West 15.0 mph - N/A   Clear
12:30 PM 73.4 °F - 14.0 °F 10% 30.04 in - West 13.8 mph - N/A   Clear
1:00 PM 73 °F - 15 °F 5% 30.04 in - West 12.7 mph - -  
1:00 PM 73.4 °F - 15.8 °F 11% 30.04 in - West 12.7 mph - N/A   Clear
1:30 PM 73.4 °F - 12.2 °F 10% 30.01 in - WNW 15.0 mph - N/A   Clear
2:00 PM 73.4 °F - 12.2 °F 10% 30.04 in - WNW 12.7 mph - N/A   Clear
2:30 PM 73.4 °F - 17.6 °F 12% 30.04 in - WNW 12.7 mph - N/A   Clear
3:00 PM 72 °F - 15 °F 5% 30.06 in - WNW 13.8 mph - -  
3:00 PM 71.6 °F - 15.8 °F 12% 30.04 in - WNW 13.8 mph - N/A   Clear
3:30 PM 71.6 °F - 19.4 °F 14% 30.04 in - West 10.4 mph - N/A   Clear
4:00 PM 68 °F - 34 °F 18% 30.08 in - SSW 12.7 mph - -  
4:00 PM 68.0 °F - 33.8 °F 28% 30.06 in - SSW 12.7 mph - N/A   Clear
4:30 PM 64.4 °F - 35.6 °F 34% 30.06 in - South 11.5 mph - N/A   Clear
5:00 PM 60.8 °F - 35.6 °F 39% 30.09 in 6.2 mi SSE 10.4 mph - N/A   Partly Cloudy
5:30 PM 59.0 °F - 33.8 °F 39% 30.12 in 6.2 mi South 9.2 mph - N/A   Partly Cloudy
6:00 PM 57 °F - 32 °F 26% 30.16 in - South 10.4 mph - -  
6:00 PM 57.2 °F - 32.0 °F 38% 30.12 in 6.2 mi South 10.4 mph - N/A   Scattered Clouds
6:30 PM 57.2 °F - 28.4 °F 33% 30.15 in 6.2 mi SSE 9.2 mph - N/A   Mostly Cloudy
7:00 PM 55 °F - 28 °F 23% 30.20 in - SSE 10.4 mph - -  
7:00 PM 55.4 °F - 28.4 °F 36% 30.18 in 6.2 mi SSE 10.4 mph - N/A   Overcast
7:30 PM 53.6 °F - 28.4 °F 38% 30.21 in 6.2 mi SSE 8.1 mph - N/A   Overcast
8:00 PM 53.6 °F - 26.6 °F 35% 30.21 in 6.2 mi SSE 8.1 mph - N/A   Overcast
8:30 PM 51.8 °F - 26.6 °F 38% 30.21 in 6.2 mi South 10.4 mph - N/A   Overcast
9:00 PM 50 °F - 28 °F 30% 30.25 in - South 8.1 mph - -  
9:00 PM 50.0 °F - 28.4 °F 43% 30.21 in 6.2 mi South 8.1 mph - N/A   Overcast
9:30 PM 50.0 °F - 28.4 °F 43% 30.24 in 6.2 mi South 9.2 mph - N/A   Overcast
10:00 PM 48 °F - 28 °F 33% 30.26 in - South 6.9 mph - -  
10:00 PM 48.2 °F - 28.4 °F 46% 30.24 in 6.2 mi South 6.9 mph - N/A   Overcast
10:30 PM 46.4 °F 42.4 °F 28.4 °F 50% 30.24 in 6.2 mi SSE 8.1 mph - N/A   Mostly Cloudy
11:00 PM 44.6 °F 40.7 °F 28.4 °F 53% 30.24 in 6.2 mi South 6.9 mph - N/A   Overcast
11:30 PM 42.8 °F 38.6 °F 28.4 °F 57% 30.24 in 6.2 mi South 6.9 mph - N/A   Mostly Cloudy